User: anonymous
Location: UBC Liquid-Mirror Observatory
(49.2876°N, 122.5728°W)
Time: 19:14:18
(UTC-07:00)
Language:

KITSAT 1 - Orbit

View from above orbital plane
View from above orbital plane
View from above satellite
View from above satellite

Ground track
Ground track

The orbit data is extracted from the following two-line orbital elements,

1 22077U 92052B   14240.80569689 -.00000078  00000-0 -63817-4 0  6980
2 22077 066.0858 310.1569 0005546 201.1233 249.6609 12.86494674 35746
Epoch (UTC): 28 August 2014 19:20:12
Eccentricity: 0.0005546
inclination: 66.0858°
perigee height: 1311 km
apogee height: 1320 km
right ascension of ascending node: 310.1569°
argument of perigee: 201.1233°
revolutions per day: 12.86494674
mean anomaly at epoch: 249.6609°
orbit number at epoch: 3574

The dashed part of the orbit path shows where the satellite is in the earth's shadow,  

DLR